Weather History for Nampa, ID

Change the Weather History Date:

Monday, September 9, 2013

  Actual Average (KBOI) Record (KBOI)
Temperature  
Mean Temperature 72 °F 67 °F  
Max Temperature 84 °F 82 °F 95 °F (1997)
Min Temperature 59 °F 53 °F 34 °F (1970)
Degree Days  
Heating Degree Days 0 2  
Month to date heating degree days 13  
Since 1 July heating degree days 31  
Cooling Degree Days 6 4  
Month to date cooling degree days 47  
Year to date cooling degree days 881  
Growing Degree Days 22 (Base 50)    
Moisture  
Dew Point 46 °F    
Average Humidity 44    
Maximum Humidity 67    
Minimum Humidity 23    
Precipitation  
Precipitation 0.00 in 0.01 in 0.75 in (1950)
Month to date precipitation 0.13  
Year to date precipitation 7.63  
Snow  
Snow 0.00 in 0.00 in 0.00 in (2006)
Month to date snowfall 0.0  
Since 1 July snowfall 0.0  
Snow Depth -    
Sea Level Pressure  
Sea Level Pressure 29.98 in    
Wind  
Wind Speed 11 mph (WNW)    
Max Wind Speed 18 mph    
Max Gust Speed 28 mph    
Visibility 10 miles    
Events      
T = Trace of Precipitation, MM = Missing Value Source: NWS Daily Summary

Daily Weather History Graph

Daily Weather History Graph

Search for Another Location

Airport:

Trip Planner

Search our weather history database for the weather conditions in past years. The results will help you decide how hot, cold, wet, or windy it might be!

Date:

Astronomy

Sep. 09, 2013 Rise Set
Actual Time 7:19 AM MDT 8:06 PM MDT
Civil Twilight 6:50 AM MDT 8:35 PM MDT
Nautical Twilight 6:15 AM MDT 9:09 PM MDT
Astronomical Twilight 5:39 AM MDT 9:45 PM MDT
Moon 11:55 AM MDT (9/9) 10:16 PM MDT (9/9)
Length of Visible Light 13h 45m
Length of Day
12h 47m
Waxing Crescent, 19% of the Moon is Illuminated
Sep 9
Waxing Crescent
Sep 12
First Quarter
Sep 19
Full
Sep 26
Last Quarter
Oct 4
New

Hourly Weather History & Observations

Time (MDT) Temp. Dew Point Humidity Pressure Visibility Wind Dir Wind Speed Gust Speed Precip Events Conditions
12:15 AM 66.2 °F 46.4 °F 49% 29.99 in 10.0 mi NW 10.4 mph - N/A   Clear
12:35 AM 66.2 °F 46.4 °F 49% 29.98 in 10.0 mi NW 12.7 mph - N/A   Clear
12:55 AM 66.2 °F 46.4 °F 49% 29.99 in 10.0 mi NW 12.7 mph - N/A   Clear
1:15 AM 66.2 °F 46.4 °F 49% 29.99 in 10.0 mi NW 13.8 mph 18.4 mph N/A   Clear
1:35 AM 64.4 °F 46.4 °F 52% 29.99 in 10.0 mi NW 10.4 mph - N/A   Clear
1:55 AM 64.4 °F 46.4 °F 52% 29.99 in 10.0 mi WNW 12.7 mph - N/A   Clear
2:15 AM 64.4 °F 46.4 °F 52% 30.00 in 10.0 mi WNW 13.8 mph - N/A   Clear
2:35 AM 64.4 °F 46.4 °F 52% 30.00 in 10.0 mi WNW 13.8 mph 19.6 mph N/A   Clear
2:55 AM 62.6 °F 46.4 °F 55% 30.00 in 10.0 mi WNW 12.7 mph - N/A   Clear
3:15 AM 62.6 °F 48.2 °F 59% 30.00 in 10.0 mi WNW 12.7 mph - N/A   Clear
4:15 AM 62.6 °F 46.4 °F 55% 30.00 in 10.0 mi NW 6.9 mph 16.1 mph N/A   Clear
4:35 AM 62.6 °F 46.4 °F 55% 30.00 in 10.0 mi NW 10.4 mph - N/A   Clear
4:55 AM 62.6 °F 46.4 °F 55% 30.00 in 10.0 mi WNW 11.5 mph 16.1 mph N/A   Clear
5:15 AM 59.0 °F 48.2 °F 67% 30.01 in 10.0 mi West 4.6 mph - N/A   Clear
5:35 AM 59.0 °F 48.2 °F 67% 30.01 in 10.0 mi West 5.8 mph - N/A   Clear
5:55 AM 59.0 °F 48.2 °F 67% 30.01 in 10.0 mi WNW 5.8 mph - N/A   Clear
6:15 AM 59.0 °F 46.4 °F 63% 30.01 in 10.0 mi WNW 11.5 mph - N/A   Clear
6:55 AM 59.0 °F 46.4 °F 63% 30.01 in 10.0 mi NW 9.2 mph - N/A   Clear
7:15 AM 59.0 °F 46.4 °F 63% 30.01 in 10.0 mi WNW 9.2 mph - N/A   Clear
7:35 AM 59.0 °F 46.4 °F 63% 30.02 in 10.0 mi WNW 11.5 mph - N/A   Clear
7:55 AM 59.0 °F 46.4 °F 63% 30.02 in 10.0 mi WNW 10.4 mph - N/A   Clear
8:15 AM 60.8 °F 46.4 °F 59% 30.02 in 10.0 mi WNW 11.5 mph - N/A   Clear
8:35 AM 60.8 °F 46.4 °F 59% 30.03 in 10.0 mi NW 10.4 mph 17.3 mph N/A   Clear
8:55 AM 62.6 °F 48.2 °F 59% 30.03 in 10.0 mi WNW 9.2 mph - N/A   Clear
9:15 AM 62.6 °F 48.2 °F 59% 30.04 in 10.0 mi NW 8.1 mph - N/A   Clear
9:35 AM 64.4 °F 46.4 °F 52% 30.04 in 10.0 mi NW 8.1 mph - N/A   Clear
9:55 AM 64.4 °F 48.2 °F 56% 30.04 in 10.0 mi NW 10.4 mph - N/A   Clear
10:15 AM 66.2 °F 48.2 °F 52% 30.04 in 10.0 mi WNW 9.2 mph - N/A   Clear
10:35 AM 68.0 °F 48.2 °F 49% 30.03 in 10.0 mi WNW 11.5 mph - N/A   Clear
10:55 AM 69.8 °F 46.4 °F 43% 30.03 in 10.0 mi NW 12.7 mph 19.6 mph N/A   Clear
11:15 AM 71.6 °F 46.4 °F 41% 30.03 in 10.0 mi NNW 12.7 mph - N/A   Clear
11:35 AM 73.4 °F 46.4 °F 38% 30.02 in 10.0 mi NW 11.5 mph 19.6 mph N/A   Clear
11:55 AM 73.4 °F 46.4 °F 38% 30.02 in 10.0 mi NW 12.7 mph - N/A   Clear
12:15 PM 75.2 °F 46.4 °F 36% 30.01 in 10.0 mi NW 13.8 mph - N/A   Clear
12:35 PM 77.0 °F 46.4 °F 34% 30.01 in 10.0 mi WNW 15.0 mph 21.9 mph N/A   Clear
12:55 PM 77.0 °F 46.4 °F 34% 30.00 in 10.0 mi NW 11.5 mph 21.9 mph N/A   Clear
1:15 PM 78.8 °F 46.4 °F 32% 29.99 in 10.0 mi WNW 16.1 mph 19.6 mph N/A   Clear
1:35 PM 80.6 °F 46.4 °F 30% 29.98 in 10.0 mi WNW 18.4 mph 21.9 mph N/A   Clear
1:55 PM 80.6 °F 46.4 °F 30% 29.98 in 10.0 mi WNW 17.3 mph 27.6 mph N/A   Clear
2:15 PM 82.4 °F 44.6 °F 26% 29.97 in 10.0 mi NW 13.8 mph 20.7 mph N/A   Clear
2:35 PM 80.6 °F 44.6 °F 28% 29.97 in 10.0 mi WNW 17.3 mph 21.9 mph N/A   Clear
2:55 PM 82.4 °F 44.6 °F 26% 29.96 in 10.0 mi NW 15.0 mph 21.9 mph N/A   Clear
3:15 PM 82.4 °F 41.0 °F 23% 29.95 in 10.0 mi NW 16.1 mph 23.0 mph N/A   Clear
3:35 PM 82.4 °F 41.0 °F 23% 29.95 in 10.0 mi NW 15.0 mph 25.3 mph N/A   Clear
3:55 PM 82.4 °F 41.0 °F 23% 29.94 in 10.0 mi NW 17.3 mph 24.2 mph N/A   Clear
4:15 PM 82.4 °F 42.8 °F 25% 29.94 in 10.0 mi NW 15.0 mph 24.2 mph N/A   Clear
4:35 PM 84.2 °F 42.8 °F 23% 29.93 in 10.0 mi NW 11.5 mph - N/A   Clear
4:55 PM 82.4 °F 42.8 °F 25% 29.93 in 10.0 mi NW 16.1 mph - N/A   Clear
5:15 PM 82.4 °F 42.8 °F 25% 29.93 in 10.0 mi NW 11.5 mph - N/A   Clear
5:35 PM 82.4 °F 44.6 °F 26% 29.93 in 10.0 mi WNW 16.1 mph 20.7 mph N/A   Clear
5:55 PM 82.4 °F 44.6 °F 26% 29.93 in 10.0 mi WNW 12.7 mph 18.4 mph N/A   Clear
6:15 PM 82.4 °F 46.4 °F 28% 29.92 in 10.0 mi WNW 13.8 mph 19.6 mph N/A   Clear
6:35 PM 82.4 °F 46.4 °F 28% 29.92 in 10.0 mi WNW 15.0 mph - N/A   Clear
6:55 PM 80.6 °F 46.4 °F 30% 29.92 in 10.0 mi WNW 12.7 mph - N/A   Clear
7:15 PM 80.6 °F 46.4 °F 30% 29.92 in 10.0 mi WNW 11.5 mph - N/A   Clear
7:35 PM 80.6 °F 46.4 °F 30% 29.92 in 10.0 mi WNW 10.4 mph - N/A   Clear
7:55 PM 77.0 °F 46.4 °F 34% 29.92 in 10.0 mi WNW 9.2 mph - N/A   Clear
8:15 PM 75.2 °F 48.2 °F 38% 29.92 in 10.0 mi WNW 5.8 mph - N/A   Clear
8:35 PM 75.2 °F 48.2 °F 38% 29.92 in 10.0 mi WNW 5.8 mph - N/A   Clear
8:55 PM 73.4 °F 48.2 °F 41% 29.92 in 10.0 mi West 4.6 mph - N/A   Clear
9:15 PM 73.4 °F 48.2 °F 41% 29.93 in 10.0 mi West 5.8 mph - N/A   Clear
9:35 PM 71.6 °F 48.2 °F 43% 29.93 in 10.0 mi West 5.8 mph - N/A   Clear
9:55 PM 71.6 °F 48.2 °F 43% 29.93 in 10.0 mi WNW 5.8 mph - N/A   Clear
10:15 PM 69.8 °F 48.2 °F 46% 29.94 in 10.0 mi WNW 4.6 mph - N/A   Clear
10:35 PM 71.6 °F 48.2 °F 43% 29.94 in 10.0 mi NW 4.6 mph - N/A   Clear
10:55 PM 71.6 °F 46.4 °F 41% 29.94 in 10.0 mi NW 3.5 mph - N/A   Clear
11:15 PM 66.2 °F 48.2 °F 52% 29.94 in 10.0 mi Calm Calm - N/A   Clear
11:35 PM 66.2 °F 48.2 °F 52% 29.94 in 10.0 mi Calm Calm - N/A   Clear
11:55 PM 66.2 °F 48.2 °F 52% 29.94 in 10.0 mi WNW 4.6 mph - N/A   Clear